IGO011 VIDP-LTFM

Flight info

Callsign IGO011
Flight time 8h 5m
Altitude 30000
Route DUDUM6F DUDUM Q2 NIKOT Q5 UUD J61 LAXOM L639 RITPO/N0478F320 L639 RASKI N881 KIPOL L444 TOLDA M628 TULBU G652 DEBAV/N0473F340 G652 TOKRA DCT ALROK DCT BOSOB DCT ITRUX Y511 PMA Z712 WEJ DCT RASDA/N0445F280 M855 SISPI
Aircraft A21N/M-SDE3FGHIRWY/LB1

Departure

Time 2026-05-07 08:23
Airport Indira Gandhi International Airport (VIDP)

Arrival

Time 2026-05-07 16:28
Airport İstanbul Airport (LTFM)
Time Latitude Longitude Altitude Speed Heading
2026-05-07 07:40 28.56106 77.08134 756 ft 0 kts 81°
2026-05-07 08:06 28.55900 77.08040 750 ft 0 kts 242°
2026-05-07 08:16 28.55899 77.08039 756 ft 1 kts 237°
2026-05-07 08:16 28.55884 77.08048 753 ft 4 kts 96°
2026-05-07 08:16 28.55907 77.08070 753 ft 5 kts 29°
2026-05-07 08:16 28.55937 77.08080 754 ft 5 kts 360°
2026-05-07 08:17 28.55971 77.08072 754 ft 5 kts 346°
2026-05-07 08:17 28.56008 77.08058 756 ft 6 kts 330°
2026-05-07 08:17 28.56044 77.08029 756 ft 7 kts 324°
2026-05-07 08:17 28.56090 77.08007 753 ft 8 kts 358°
2026-05-07 08:18 28.56147 77.08018 755 ft 9 kts 13°
2026-05-07 08:18 28.56209 77.08037 753 ft 10 kts 15°
2026-05-07 08:18 28.56279 77.08054 754 ft 11 kts 15°
2026-05-07 08:18 28.56352 77.08042 753 ft 12 kts 313°
2026-05-07 08:19 28.56416 77.07992 753 ft 13 kts
2026-05-07 08:19 28.56484 77.08054 755 ft 14 kts 62°
2026-05-07 08:19 28.56530 77.08153 752 ft 15 kts 61°
2026-05-07 08:19 28.56580 77.08256 752 ft 15 kts 58°
2026-05-07 08:20 28.56632 77.08365 755 ft 16 kts 60°
2026-05-07 08:20 28.56672 77.08450 752 ft 5 kts 65°
2026-05-07 08:20 28.56680 77.08470 753 ft 2 kts 64°
2026-05-07 08:20 28.56687 77.08487 751 ft 2 kts 64°
2026-05-07 08:21 28.56694 77.08503 750 ft 2 kts 59°
2026-05-07 08:21 28.56702 77.08519 751 ft 2 kts 60°
2026-05-07 08:21 28.56709 77.08537 749 ft 3 kts 79°
2026-05-07 08:21 28.56703 77.08584 751 ft 24 kts 102°
2026-05-07 08:22 28.56606 77.09005 755 ft 84 kts 104°
2026-05-07 08:22 28.56412 77.09845 755 ft 132 kts 105°
2026-05-07 08:22 28.56163 77.10983 855 ft 155 kts 103°
2026-05-07 08:22 28.55878 77.12176 1275 ft 160 kts 108°
2026-05-07 08:23 28.55530 77.13354 1788 ft 161 kts 109°
2026-05-07 08:23 28.55201 77.14666 2000 ft 181 kts 104°
2026-05-07 08:23 28.54902 77.16127 2212 ft 197 kts 104°
2026-05-07 08:23 28.54551 77.17698 2472 ft 215 kts 105°
2026-05-07 08:24 28.54158 77.19420 2666 ft 235 kts 104°
2026-05-07 08:24 28.53728 77.21295 2953 ft 253 kts 105°
2026-05-07 08:24 28.53205 77.23246 3400 ft 261 kts 115°
2026-05-07 08:24 28.52136 77.24921 3859 ft 265 kts 140°
2026-05-07 08:25 28.50579 77.25962 4494 ft 263 kts 163°
2026-05-07 08:25 28.48783 77.26244 5038 ft 265 kts 184°
2026-05-07 08:25 28.46946 77.25737 5290 ft 281 kts 200°
2026-05-07 08:25 28.45091 77.24864 5501 ft 296 kts 202°
2026-05-07 08:26 28.41108 77.22996 5970 ft 321 kts 202°
2026-05-07 08:26 28.39005 77.22051 6342 ft 326 kts 202°
2026-05-07 08:26 28.36879 77.21110 6838 ft 328 kts 202°
2026-05-07 08:27 28.34738 77.20169 7353 ft 330 kts 203°
2026-05-07 08:27 28.33315 77.19546 7686 ft 333 kts 203°
2026-05-07 08:27 28.31141 77.18597 8225 ft 336 kts 203°
2026-05-07 08:27 28.28946 77.17641 8751 ft 340 kts 204°
2026-05-07 08:28 28.25998 77.16321 9389 ft 346 kts 208°
2026-05-07 08:28 28.24626 77.15368 9743 ft 343 kts 223°
2026-05-07 08:28 28.23014 77.13366 10090 ft 347 kts 235°
2026-05-07 08:28 28.21563 77.11181 10375 ft 356 kts 236°
2026-05-07 08:29 28.20050 77.08914 10643 ft 366 kts 235°
2026-05-07 08:29 28.18468 77.06604 10894 ft 375 kts 235°
2026-05-07 08:29 28.16834 77.04253 11144 ft 383 kts 234°
2026-05-07 08:29 28.15160 77.01865 11392 ft 391 kts 234°
2026-05-07 08:30 28.13454 76.99439 11640 ft 397 kts 234°
2026-05-07 08:30 28.11727 76.96990 11884 ft 399 kts 234°
2026-05-07 08:30 28.09988 76.94528 12134 ft 400 kts 234°
2026-05-07 08:30 28.08240 76.92048 12432 ft 403 kts 234°
2026-05-07 08:31 28.06485 76.89563 12802 ft 405 kts 234°
2026-05-07 08:31 28.04717 76.87060 13195 ft 408 kts 234°
2026-05-07 08:31 28.02938 76.84543 13576 ft 410 kts 234°
2026-05-07 08:31 28.01154 76.82020 13878 ft 412 kts 234°
2026-05-07 08:32 27.99357 76.79480 14165 ft 414 kts 234°
2026-05-07 08:32 27.97551 76.76931 14440 ft 416 kts 234°
2026-05-07 08:32 27.95758 76.74400 14758 ft 418 kts 234°
2026-05-07 08:32 27.93932 76.71824 15099 ft 420 kts 234°
2026-05-07 08:33 27.92096 76.69237 15442 ft 422 kts 234°
2026-05-07 08:33 27.90252 76.66640 15755 ft 424 kts 234°
2026-05-07 08:33 27.88416 76.64054 16023 ft 426 kts 234°
2026-05-07 08:33 27.86542 76.61417 16277 ft 428 kts 234°
2026-05-07 08:34 27.84671 76.58786 16533 ft 430 kts 234°
2026-05-07 08:34 27.82795 76.56147 16765 ft 431 kts 234°
2026-05-07 08:34 27.80884 76.53522 16990 ft 435 kts 231°
2026-05-07 08:34 27.78646 76.51198 17237 ft 441 kts 220°
2026-05-07 08:35 27.76116 76.49218 17500 ft 444 kts 217°
2026-05-07 08:35 27.73534 76.47304 17749 ft 446 kts 216°
2026-05-07 08:35 27.70934 76.45378 18020 ft 447 kts 217°
2026-05-07 08:35 27.68338 76.43438 18254 ft 448 kts 217°
2026-05-07 08:36 27.65739 76.41488 18460 ft 450 kts 217°
2026-05-07 08:36 27.63122 76.39520 18684 ft 452 kts 217°
2026-05-07 08:36 27.60499 76.37547 18891 ft 454 kts 217°
2026-05-07 08:36 27.57873 76.35574 19127 ft 455 kts 217°
2026-05-07 08:37 27.55264 76.33615 19362 ft 457 kts 217°
2026-05-07 08:37 27.52611 76.31632 19616 ft 459 kts 216°
2026-05-07 08:37 27.49890 76.29728 19870 ft 462 kts 215°
2026-05-07 08:37 27.47142 76.27840 20099 ft 463 kts 214°
2026-05-07 08:38 27.44381 76.25948 20291 ft 466 kts 215°
2026-05-07 08:38 27.41605 76.24044 20528 ft 468 kts 215°
2026-05-07 08:38 27.38821 76.22136 20801 ft 469 kts 215°
2026-05-07 08:38 27.36025 76.20221 21073 ft 472 kts 215°
2026-05-07 08:39 27.33210 76.18292 21385 ft 474 kts 215°
2026-05-07 08:39 27.30387 76.16358 21671 ft 477 kts 215°
2026-05-07 08:39 27.27543 76.14416 21956 ft 479 kts 215°
2026-05-07 08:39 27.24691 76.12468 22230 ft 480 kts 215°
2026-05-07 08:40 27.21824 76.10509 22457 ft 483 kts 215°
2026-05-07 08:40 27.18952 76.08548 22804 ft 482 kts 215°
2026-05-07 08:40 27.16085 76.06591 23113 ft 483 kts 215°
2026-05-07 08:40 27.13212 76.04631 23406 ft 483 kts 215°
2026-05-07 08:41 27.10361 76.02687 23620 ft 485 kts 215°
2026-05-07 08:41 27.07479 76.00722 23796 ft 486 kts 216°
2026-05-07 08:41 27.04576 75.98746 23980 ft 488 kts 215°
2026-05-07 08:41 27.01665 75.96768 24164 ft 490 kts 216°
2026-05-07 08:42 26.98754 75.94788 24347 ft 491 kts 216°
2026-05-07 08:42 26.95819 75.92794 24551 ft 492 kts 216°
2026-05-07 08:42 26.92888 75.90804 24767 ft 492 kts 216°
2026-05-07 08:42 26.89955 75.88815 24999 ft 492 kts 216°
2026-05-07 08:43 26.87025 75.86828 25242 ft 492 kts 216°
2026-05-07 08:43 26.84094 75.84847 25459 ft 492 kts 215°
2026-05-07 08:43 26.81011 75.83131 25676 ft 498 kts 206°
2026-05-07 08:43 26.77777 75.81738 25922 ft 498 kts 205°
2026-05-07 08:44 26.74527 75.80373 26150 ft 498 kts 205°
2026-05-07 08:44 26.71284 75.79010 26382 ft 498 kts 205°
2026-05-07 08:44 26.68038 75.77638 26596 ft 498 kts 205°
2026-05-07 08:44 26.64796 75.76265 26829 ft 497 kts 205°
2026-05-07 08:45 26.61608 75.74913 27073 ft 496 kts 205°
2026-05-07 08:45 26.58385 75.73547 27302 ft 495 kts 205°
2026-05-07 08:45 26.55157 75.72181 27527 ft 495 kts 205°
2026-05-07 08:45 26.51942 75.70821 27731 ft 494 kts 206°
2026-05-07 08:46 26.48728 75.69463 27952 ft 494 kts 206°
2026-05-07 08:46 26.45505 75.68101 28170 ft 493 kts 206°
2026-05-07 08:46 26.42295 75.66745 28394 ft 492 kts 206°
2026-05-07 08:46 26.39099 75.65395 28616 ft 491 kts 206°
2026-05-07 08:47 26.35905 75.64049 28841 ft 490 kts 206°
2026-05-07 08:47 26.32716 75.62706 29054 ft 490 kts 206°
2026-05-07 08:47 26.29527 75.61368 29286 ft 489 kts 206°
2026-05-07 08:47 26.26348 75.60032 29488 ft 488 kts 206°
2026-05-07 08:48 26.23170 75.58697 29699 ft 488 kts 206°
2026-05-07 08:48 26.19998 75.57363 29799 ft 488 kts 206°
2026-05-07 08:48 26.13692 75.54716 29779 ft 487 kts 206°
2026-05-07 08:49 26.07351 75.52057 29767 ft 487 kts 206°
2026-05-07 08:49 26.01277 75.48939 29754 ft 473 kts 223°
2026-05-07 08:50 25.96580 75.43898 29785 ft 470 kts 232°
2026-05-07 08:50 25.91998 75.38687 29773 ft 472 kts 231°
2026-05-07 08:51 25.87348 75.33520 29771 ft 472 kts 231°
2026-05-07 08:51 25.82688 75.28365 29772 ft 473 kts 231°
2026-05-07 08:52 25.78027 75.23212 29768 ft 473 kts 231°
2026-05-07 08:52 25.73431 75.18051 29772 ft 470 kts 237°
2026-05-07 08:53 25.69642 75.12240 29764 ft 464 kts 242°
2026-05-07 08:53 25.65926 75.06362 29779 ft 465 kts 241°
2026-05-07 08:54 25.62161 75.00514 29781 ft 466 kts 241°
2026-05-07 08:54 25.58383 74.94670 29787 ft 466 kts 241°
2026-05-07 08:55 25.54601 74.88828 29786 ft 467 kts 241°
2026-05-07 08:55 25.50817 74.82985 29782 ft 467 kts 241°
2026-05-07 08:56 25.47045 74.77169 29783 ft 468 kts 241°
2026-05-07 08:56 25.43247 74.71320 29787 ft 468 kts 241°
2026-05-07 08:57 25.39442 74.65471 29792 ft 468 kts 241°
2026-05-07 08:57 25.35634 74.59619 29793 ft 469 kts 241°
2026-05-07 08:58 25.31821 74.53766 29800 ft 469 kts 241°
2026-05-07 08:58 25.28021 74.47946 29799 ft 470 kts 241°
2026-05-07 08:59 25.24186 74.42078 29807 ft 471 kts 241°
2026-05-07 08:59 25.20342 74.36199 29802 ft 472 kts 241°
2026-05-07 09:00 25.16492 74.30323 29806 ft 472 kts 241°
2026-05-07 09:00 25.12633 74.24441 29815 ft 473 kts 241°
2026-05-07 09:01 25.08800 74.18602 29817 ft 474 kts 241°
2026-05-07 09:01 25.04923 74.12704 29814 ft 474 kts 241°
2026-05-07 09:02 25.01038 74.06799 29821 ft 475 kts 241°
2026-05-07 09:02 24.97150 74.00903 29824 ft 475 kts 241°
2026-05-07 09:03 24.93255 73.95000 29833 ft 476 kts 241°
2026-05-07 09:03 24.89360 73.89102 29832 ft 477 kts 241°
2026-05-07 09:04 24.85479 73.83237 29836 ft 477 kts 241°
2026-05-07 09:04 24.81563 73.77323 29840 ft 478 kts 241°
2026-05-07 09:05 24.77633 73.71398 29845 ft 478 kts 241°
2026-05-07 09:05 24.73729 73.65478 29848 ft 479 kts 241°
2026-05-07 09:06 24.69780 73.59560 29846 ft 479 kts 241°
2026-05-07 09:06 24.65868 73.53691 29846 ft 479 kts 241°
2026-05-07 09:07 24.61927 73.47775 29835 ft 480 kts 241°
2026-05-07 09:07 24.57975 73.41852 29839 ft 480 kts 241°
2026-05-07 09:08 24.54024 73.35936 29825 ft 480 kts 241°
2026-05-07 09:08 24.50409 73.29850 29833 ft 474 kts 246°
2026-05-07 09:09 24.46777 73.23767 29820 ft 479 kts 242°
2026-05-07 09:09 24.42809 73.17855 29813 ft 484 kts 238°
2026-05-07 09:10 24.38382 73.12323 29811 ft 484 kts 238°
2026-05-07 09:10 24.34276 73.06511 29802 ft 481 kts 241°
2026-05-07 09:11 24.30306 73.00596 29796 ft 480 kts 241°
2026-05-07 09:11 24.26336 72.94691 29790 ft 481 kts 241°
2026-05-07 09:12 24.22355 72.88791 29787 ft 480 kts 241°
2026-05-07 09:12 24.18392 72.82925 29781 ft 481 kts 241°
2026-05-07 09:13 24.14411 72.77039 29776 ft 481 kts 241°
2026-05-07 09:13 24.10423 72.71148 29777 ft 482 kts 241°
2026-05-07 09:14 24.06428 72.65257 29769 ft 482 kts 241°
2026-05-07 09:14 24.02432 72.59370 29766 ft 482 kts 241°
2026-05-07 09:15 23.99108 72.54479 29762 ft 482 kts 241°
2026-05-07 09:15 23.95100 72.48588 29760 ft 483 kts 240°
2026-05-07 09:16 23.91086 72.42695 29753 ft 483 kts 240°
2026-05-07 09:16 23.87066 72.36802 29747 ft 483 kts 240°
2026-05-07 09:17 23.83045 72.30911 29744 ft 484 kts 240°
2026-05-07 09:17 23.79042 72.25055 29744 ft 483 kts 240°
2026-05-07 09:18 23.75009 72.19164 29740 ft 484 kts 240°
2026-05-07 09:18 23.70973 72.13275 29737 ft 484 kts 240°
2026-05-07 09:19 23.66941 72.07399 29736 ft 484 kts 240°
2026-05-07 09:19 23.62918 72.01519 29739 ft 484 kts 240°
2026-05-07 09:20 23.58897 71.95640 29740 ft 484 kts 240°
2026-05-07 09:20 23.54858 71.89764 29743 ft 484 kts 240°
2026-05-07 09:21 23.50841 71.83936 29747 ft 484 kts 240°
2026-05-07 09:21 23.46792 71.78067 29745 ft 484 kts 240°
2026-05-07 09:22 23.42738 71.72198 29746 ft 484 kts 240°
2026-05-07 09:22 23.38683 71.66336 29747 ft 484 kts 240°
2026-05-07 09:23 23.34631 71.60472 29749 ft 484 kts 240°
2026-05-07 09:23 23.30601 71.54658 29735 ft 484 kts 240°
2026-05-07 09:24 23.26547 71.48811 29735 ft 484 kts 239°
2026-05-07 09:24 23.22493 71.42974 29743 ft 484 kts 239°
2026-05-07 09:25 23.18434 71.37137 29740 ft 484 kts 239°
2026-05-07 09:25 23.14374 71.31304 29744 ft 483 kts 239°
2026-05-07 09:26 23.10316 71.25480 29748 ft 483 kts 239°
2026-05-07 09:26 23.06211 71.19690 29749 ft 486 kts 236°
2026-05-07 09:27 23.01809 71.14109 29751 ft 485 kts 237°
2026-05-07 09:28 22.95934 71.05269 29761 ft 479 kts 242°
2026-05-07 09:28 22.92055 70.99352 29763 ft 482 kts 239°
2026-05-07 09:29 22.87997 70.93550 29768 ft 482 kts 239°
2026-05-07 09:29 22.83979 70.87737 29779 ft 479 kts 243°
2026-05-07 09:30 22.81457 70.81287 29780 ft 461 kts 264°
2026-05-07 09:30 22.81120 70.77868 29768 ft 453 kts 275°
2026-05-07 09:30 22.81276 70.74470 29786 ft 449 kts 279°
2026-05-07 09:31 22.81782 70.67717 29787 ft 450 kts 278°
2026-05-07 09:31 22.82234 70.60949 29781 ft 450 kts 278°
2026-05-07 09:32 22.82665 70.54178 29784 ft 450 kts 278°
2026-05-07 09:32 22.83098 70.47397 29787 ft 450 kts 278°
2026-05-07 09:33 22.83515 70.40609 29798 ft 451 kts 278°
2026-05-07 09:33 22.83922 70.33869 29798 ft 451 kts 278°
2026-05-07 09:34 22.84334 70.27077 29799 ft 451 kts 278°
2026-05-07 09:34 22.84752 70.20418 29797 ft 451 kts 278°
2026-05-07 09:35 22.85150 70.13885 29799 ft 451 kts 278°
2026-05-07 09:35 22.85557 70.07112 29791 ft 451 kts 278°
2026-05-07 09:36 22.85963 70.00323 29785 ft 451 kts 277°
2026-05-07 09:36 22.86365 69.93536 29787 ft 451 kts 277°
2026-05-07 09:37 22.86759 69.86744 29795 ft 451 kts 277°
2026-05-07 09:37 22.87154 69.79999 29788 ft 451 kts 277°
2026-05-07 09:38 22.87547 69.73205 29792 ft 452 kts 277°
2026-05-07 09:38 22.87944 69.66410 29796 ft 451 kts 278°
2026-05-07 09:39 22.88357 69.60150 29794 ft 451 kts 278°
2026-05-07 09:39 22.88799 69.53357 29796 ft 452 kts 278°
2026-05-07 09:40 22.89222 69.46604 29792 ft 452 kts 277°
2026-05-07 09:40 22.89656 69.39812 29797 ft 452 kts 277°
2026-05-07 09:41 22.90077 69.33013 29796 ft 452 kts 277°
2026-05-07 09:41 22.90492 69.26217 29796 ft 452 kts 277°
2026-05-07 09:42 22.90915 69.19455 29792 ft 452 kts 277°
2026-05-07 09:42 22.91348 69.12658 29794 ft 452 kts 277°
2026-05-07 09:43 22.91766 69.05847 29797 ft 452 kts 277°
2026-05-07 09:43 22.92182 68.99042 29796 ft 453 kts 277°
2026-05-07 09:44 22.92589 68.92264 29797 ft 453 kts 277°
2026-05-07 09:44 22.92999 68.85450 29800 ft 453 kts 277°
2026-05-07 09:45 22.93405 68.78620 29799 ft 454 kts 277°
2026-05-07 09:45 22.93806 68.71787 29797 ft 454 kts 277°
2026-05-07 09:46 22.94205 68.64997 29800 ft 454 kts 277°
2026-05-07 09:46 22.94603 68.58157 29800 ft 455 kts 277°
2026-05-07 09:47 22.95001 68.51312 29799 ft 455 kts 277°
2026-05-07 09:47 22.95385 68.44466 29797 ft 455 kts 276°
2026-05-07 09:48 22.95744 68.37609 29793 ft 456 kts 275°
2026-05-07 09:48 22.95769 68.30763 29802 ft 457 kts 273°
2026-05-07 09:49 22.95764 68.23863 29795 ft 457 kts 273°
2026-05-07 09:49 22.95769 68.16962 29795 ft 458 kts 273°
2026-05-07 09:50 22.95778 68.10060 29796 ft 457 kts 273°
2026-05-07 09:50 22.95777 68.03294 29795 ft 458 kts 273°
2026-05-07 09:51 22.95773 67.96385 29792 ft 458 kts 273°
2026-05-07 09:51 22.95769 67.89474 29797 ft 458 kts 273°
2026-05-07 09:52 22.95764 67.82565 29794 ft 458 kts 273°
2026-05-07 09:52 22.95775 67.75699 29798 ft 458 kts 273°
2026-05-07 09:53 22.95789 67.68782 29796 ft 459 kts 273°
2026-05-07 09:53 22.95812 67.61865 29793 ft 459 kts 273°
2026-05-07 09:54 22.95821 67.54941 29792 ft 459 kts 273°
2026-05-07 09:54 22.95833 67.48060 29794 ft 459 kts 273°
2026-05-07 09:55 22.95825 67.41126 29797 ft 460 kts 272°
2026-05-07 09:55 22.95815 67.34186 29795 ft 460 kts 272°
2026-05-07 09:56 22.95814 67.27249 29788 ft 460 kts 272°
2026-05-07 09:56 22.95810 67.20349 29797 ft 460 kts 272°
2026-05-07 09:57 22.95796 67.13393 29791 ft 461 kts 272°
2026-05-07 09:57 22.95774 67.06443 29786 ft 461 kts 272°
2026-05-07 09:58 22.95761 66.99483 29793 ft 461 kts 272°
2026-05-07 09:58 22.95766 66.92568 29796 ft 461 kts 272°
2026-05-07 09:59 22.95826 66.85606 29796 ft 461 kts 273°
2026-05-07 09:59 22.95874 66.78639 29789 ft 462 kts 272°
2026-05-07 10:00 22.95907 66.71674 29791 ft 462 kts 272°
2026-05-07 10:00 22.95932 66.64705 29797 ft 462 kts 272°
2026-05-07 10:01 22.95964 66.57782 29799 ft 462 kts 272°
2026-05-07 10:01 22.95989 66.50811 29794 ft 462 kts 272°
2026-05-07 10:02 22.96008 66.43842 29791 ft 462 kts 272°
2026-05-07 10:02 22.96029 66.36875 29784 ft 462 kts 272°
2026-05-07 10:03 22.96046 66.29958 29792 ft 462 kts 272°
2026-05-07 10:03 22.96074 66.22999 29791 ft 462 kts 272°
2026-05-07 10:04 22.96100 66.16025 29794 ft 462 kts 272°
2026-05-07 10:04 22.96112 66.09057 29791 ft 462 kts 272°
2026-05-07 10:05 22.96102 66.02134 29790 ft 462 kts 272°
2026-05-07 10:05 22.96117 65.95173 29792 ft 461 kts 272°
2026-05-07 10:06 22.96125 65.88211 29792 ft 462 kts 272°
2026-05-07 10:06 22.96118 65.81247 29789 ft 462 kts 272°
2026-05-07 10:07 22.96121 65.74274 29784 ft 462 kts 272°
2026-05-07 10:07 22.96091 65.67360 29782 ft 461 kts 271°
2026-05-07 10:08 22.96070 65.60401 29790 ft 461 kts 272°
2026-05-07 10:08 22.96067 65.53444 29780 ft 461 kts 272°
2026-05-07 10:09 22.96043 65.46483 29789 ft 461 kts 271°
2026-05-07 10:09 22.96017 65.39580 29782 ft 461 kts 271°
2026-05-07 10:10 22.96011 65.32628 29780 ft 461 kts 271°
2026-05-07 10:10 22.95987 65.25674 29795 ft 461 kts 271°
2026-05-07 10:11 22.95958 65.18726 29784 ft 461 kts 271°
2026-05-07 10:11 22.95925 65.11772 29786 ft 461 kts 271°
2026-05-07 10:12 22.95889 65.04862 29785 ft 461 kts 271°
2026-05-07 10:12 22.95847 64.97905 29783 ft 461 kts 271°
2026-05-07 10:13 22.95802 64.90950 29772 ft 461 kts 271°
2026-05-07 10:13 22.95780 64.83992 29772 ft 461 kts 273°
2026-05-07 10:14 22.96401 64.77137 29778 ft 460 kts 278°
2026-05-07 10:14 22.97140 64.70253 29789 ft 459 kts 278°
2026-05-07 10:15 22.97881 64.63361 29779 ft 459 kts 278°
2026-05-07 10:15 22.98608 64.56477 29771 ft 459 kts 278°
2026-05-07 10:16 22.99336 64.49642 29782 ft 459 kts 277°
2026-05-07 10:16 23.00048 64.42756 29786 ft 459 kts 277°
2026-05-07 10:17 23.00753 64.35866 29783 ft 459 kts 277°
2026-05-07 10:17 23.01464 64.28980 29782 ft 459 kts 277°
2026-05-07 10:18 23.02176 64.22140 29783 ft 459 kts 277°
2026-05-07 10:18 23.02898 64.15252 29777 ft 459 kts 277°
2026-05-07 10:19 23.03601 64.08353 29777 ft 459 kts 277°
2026-05-07 10:19 23.04298 64.01462 29780 ft 459 kts 277°
2026-05-07 10:20 23.04995 63.94618 29778 ft 459 kts 277°
2026-05-07 10:20 23.05693 63.87836 29780 ft 459 kts 277°
2026-05-07 10:21 23.05887 63.80888 29779 ft 461 kts 271°
2026-05-07 10:21 23.05982 63.73936 29830 ft 460 kts 271°
2026-05-07 10:22 23.06038 63.66987 29842 ft 460 kts 272°
2026-05-07 10:22 23.06098 63.60099 29909 ft 458 kts 271°
2026-05-07 10:23 23.06196 63.53132 29782 ft 459 kts 271°
2026-05-07 10:23 23.06245 63.46226 29710 ft 462 kts 272°
2026-05-07 10:23 23.06278 63.42747 29838 ft 459 kts 272°
2026-05-07 10:24 23.06321 63.39338 29961 ft 459 kts 272°
2026-05-07 10:24 23.06387 63.32389 29910 ft 460 kts 271°
2026-05-07 10:25 23.06421 63.25482 29908 ft 455 kts 271°
2026-05-07 10:25 23.06473 63.18611 29806 ft 456 kts 271°
2026-05-07 10:26 23.06556 63.11725 29737 ft 462 kts 272°
2026-05-07 10:26 23.06590 63.04748 29813 ft 461 kts 271°
2026-05-07 10:27 23.06627 62.97794 29733 ft 461 kts 271°
2026-05-07 10:27 23.06674 62.90820 29643 ft 461 kts 272°
2026-05-07 10:28 23.06730 62.83909 29803 ft 461 kts 272°
2026-05-07 10:28 23.06751 62.76951 29876 ft 461 kts 271°
2026-05-07 10:29 23.06780 62.69990 29785 ft 461 kts 270°
2026-05-07 10:29 23.06829 62.63022 29860 ft 459 kts 272°
2026-05-07 10:30 23.06885 62.52758 29847 ft 454 kts 270°
2026-05-07 10:30 23.06881 62.49361 29721 ft 458 kts 270°
2026-05-07 10:30 23.06891 62.45835 29642 ft 462 kts 271°
2026-05-07 10:31 23.06920 62.38846 29610 ft 463 kts 272°
2026-05-07 10:31 23.06940 62.31867 29785 ft 462 kts 271°
2026-05-07 10:32 23.06960 62.24954 29902 ft 460 kts 271°
2026-05-07 10:32 23.06969 62.18002 29891 ft 461 kts 271°
2026-05-07 10:33 23.07002 62.11044 29861 ft 462 kts 271°
2026-05-07 10:33 23.06985 62.04124 29805 ft 462 kts 272°
2026-05-07 10:34 23.06997 61.97152 29830 ft 460 kts 271°
2026-05-07 10:34 23.06989 61.90198 29760 ft 463 kts 271°
2026-05-07 10:35 23.06985 61.86700 29629 ft 463 kts 270°
2026-05-07 10:35 23.06987 61.83198 29637 ft 464 kts 270°
2026-05-07 10:35 23.06996 61.79701 29756 ft 463 kts 271°
2026-05-07 10:35 23.07009 61.76201 29824 ft 463 kts 270°
2026-05-07 10:36 23.06976 61.69273 29931 ft 461 kts 271°
2026-05-07 10:36 23.06977 61.62238 29961 ft 460 kts 271°
2026-05-07 10:37 23.06948 61.55340 29796 ft 461 kts 270°
2026-05-07 10:37 23.06916 61.48399 29654 ft 465 kts 269°
2026-05-07 10:38 23.05867 61.41471 29703 ft 466 kts 261°
2026-05-07 10:38 23.05000 61.34556 29761 ft 465 kts 264°
2026-05-07 10:39 23.04619 61.31028 29881 ft 464 kts 263°
2026-05-07 10:39 23.04192 61.27551 29908 ft 465 kts 264°
2026-05-07 10:39 23.03277 61.20677 29905 ft 464 kts 264°
2026-05-07 10:40 23.02332 61.13744 29881 ft 463 kts 263°
2026-05-07 10:40 23.01415 61.06902 29814 ft 462 kts 263°
2026-05-07 10:41 23.00507 60.99962 29785 ft 465 kts 263°
2026-05-07 10:41 22.99578 60.93013 29781 ft 465 kts 263°
2026-05-07 10:42 22.98642 60.86054 29776 ft 466 kts 263°
2026-05-07 10:42 22.97712 60.79147 29773 ft 466 kts 263°
2026-05-07 10:43 22.96772 60.72201 29779 ft 466 kts 263°
2026-05-07 10:43 22.95827 60.65244 29781 ft 466 kts 263°
2026-05-07 10:44 22.94883 60.58295 29780 ft 466 kts 263°
2026-05-07 10:44 22.93939 60.51392 29776 ft 466 kts 263°
2026-05-07 10:45 22.92986 60.44444 29780 ft 466 kts 263°
2026-05-07 10:45 22.92033 60.37495 29783 ft 466 kts 263°
2026-05-07 10:46 22.91076 60.30551 29783 ft 466 kts 262°
2026-05-07 10:46 22.90114 60.23606 29772 ft 466 kts 262°
2026-05-07 10:47 22.89151 60.16701 29767 ft 466 kts 262°
2026-05-07 10:47 22.88173 60.09759 29772 ft 466 kts 262°
2026-05-07 10:48 22.87192 60.02817 29776 ft 466 kts 262°
2026-05-07 10:48 22.86213 59.95876 29775 ft 466 kts 262°
2026-05-07 10:49 22.85225 59.88931 29774 ft 466 kts 262°
2026-05-07 10:49 22.84250 59.81992 29779 ft 466 kts 262°
2026-05-07 10:50 22.83297 59.75094 29771 ft 466 kts 262°
2026-05-07 10:50 22.82332 59.68153 29772 ft 466 kts 262°
2026-05-07 10:51 22.81358 59.61219 29779 ft 466 kts 262°
2026-05-07 10:51 22.80382 59.54280 29778 ft 466 kts 262°
2026-05-07 10:52 22.79412 59.47390 29787 ft 466 kts 262°
2026-05-07 10:52 22.78431 59.40453 29797 ft 466 kts 262°
2026-05-07 10:53 22.77449 59.33517 29808 ft 466 kts 262°
2026-05-07 10:53 22.76450 59.26575 29819 ft 467 kts 262°
2026-05-07 10:54 22.75459 59.19639 29825 ft 467 kts 262°
2026-05-07 10:54 22.74468 59.12740 29827 ft 466 kts 262°
2026-05-07 10:55 22.73466 59.05796 29829 ft 467 kts 262°
2026-05-07 10:55 22.72462 58.98848 29846 ft 467 kts 262°
2026-05-07 10:56 22.71451 58.91897 29844 ft 467 kts 262°
2026-05-07 10:56 22.70441 58.85004 29836 ft 467 kts 262°
2026-05-07 10:57 22.69419 58.78056 29836 ft 467 kts 262°
2026-05-07 10:57 22.68411 58.71112 29835 ft 467 kts 262°
2026-05-07 10:58 22.67418 58.64165 29831 ft 467 kts 264°
2026-05-07 10:58 22.67759 58.57187 29836 ft 466 kts 283°
2026-05-07 10:59 22.69518 58.50479 29845 ft 467 kts 286°
2026-05-07 10:59 22.71327 58.43726 29844 ft 466 kts 285°
2026-05-07 11:00 22.73081 58.36967 29851 ft 466 kts 285°
2026-05-07 11:00 22.74850 58.30216 29862 ft 466 kts 285°
2026-05-07 11:01 22.76595 58.23505 29857 ft 466 kts 285°
2026-05-07 11:01 22.78363 58.16756 29863 ft 465 kts 285°
2026-05-07 11:02 22.80117 58.10011 29866 ft 465 kts 285°
2026-05-07 11:02 22.81861 58.03272 29871 ft 465 kts 285°
2026-05-07 11:03 22.83593 57.96572 29884 ft 464 kts 285°
2026-05-07 11:03 22.85336 57.89832 29896 ft 465 kts 285°
2026-05-07 11:04 22.87078 57.83080 29898 ft 465 kts 285°
2026-05-07 11:04 22.88521 57.77462 29901 ft 465 kts 285°
2026-05-07 11:05 22.90226 57.70703 29900 ft 465 kts 284°
2026-05-07 11:05 22.92184 57.62826 29918 ft 465 kts 284°
2026-05-07 11:06 22.93861 57.56065 29927 ft 463 kts 284°
2026-05-07 11:06 22.95258 57.50449 29931 ft 464 kts 284°
2026-05-07 11:07 22.96931 57.43688 29934 ft 464 kts 284°
2026-05-07 11:07 22.98562 57.36928 29932 ft 463 kts 282°
2026-05-07 11:08 22.98825 57.29983 29935 ft 464 kts 262°
2026-05-07 11:08 22.98049 57.26628 29933 ft 465 kts 251°
2026-05-07 11:08 22.96721 57.23427 29947 ft 466 kts 244°
2026-05-07 11:09 22.93694 57.17209 29934 ft 466 kts 243°
2026-05-07 11:09 22.90689 57.10974 29933 ft 467 kts 244°
2026-05-07 11:10 22.87694 57.04730 29932 ft 467 kts 244°
2026-05-07 11:10 22.84726 56.98518 29931 ft 467 kts 244°
2026-05-07 11:11 22.81732 56.92272 29919 ft 467 kts 243°
2026-05-07 11:11 22.78740 56.86021 29912 ft 467 kts 244°
2026-05-07 11:12 22.75739 56.79777 29904 ft 467 kts 243°
2026-05-07 11:12 22.72748 56.73567 29892 ft 468 kts 243°
2026-05-07 11:13 22.69744 56.67317 29886 ft 468 kts 243°
2026-05-07 11:13 22.66735 56.61076 29881 ft 468 kts 243°
2026-05-07 11:14 22.63723 56.54826 29872 ft 468 kts 243°
2026-05-07 11:14 22.60725 56.48624 29868 ft 468 kts 243°
2026-05-07 11:15 22.57701 56.42379 29860 ft 468 kts 243°
2026-05-07 11:15 22.54680 56.36139 29862 ft 468 kts 243°
2026-05-07 11:16 22.51656 56.29900 29858 ft 468 kts 243°
2026-05-07 11:16 22.48630 56.23662 29855 ft 468 kts 243°
2026-05-07 11:17 22.45625 56.17470 29845 ft 468 kts 243°
2026-05-07 11:17 22.42597 56.11237 29843 ft 468 kts 243°
2026-05-07 11:18 22.39567 56.05013 29841 ft 468 kts 243°
2026-05-07 11:18 22.36534 55.98798 29837 ft 468 kts 243°
2026-05-07 11:19 22.33493 55.92638 29838 ft 468 kts 243°
2026-05-07 11:19 22.30431 55.86443 29823 ft 467 kts 243°
2026-05-07 11:20 22.27380 55.80247 29822 ft 467 kts 243°
2026-05-07 11:20 22.24348 55.74042 29818 ft 467 kts 243°
2026-05-07 11:21 22.21314 55.67838 29815 ft 467 kts 243°
2026-05-07 11:21 22.18292 55.61686 29815 ft 467 kts 243°
2026-05-07 11:22 22.15708 55.55273 29805 ft 466 kts 256°
2026-05-07 11:22 22.14946 55.48340 29809 ft 465 kts 266°
2026-05-07 11:23 22.14435 55.41384 29803 ft 465 kts 265°
2026-05-07 11:23 22.13892 55.34479 29806 ft 465 kts 265°
2026-05-07 11:24 22.13326 55.27527 29790 ft 465 kts 265°
2026-05-07 11:24 22.13453 55.20569 29794 ft 465 kts 276°
2026-05-07 11:25 22.14237 55.13645 29800 ft 465 kts 276°
2026-05-07 11:25 22.14972 55.06752 29792 ft 465 kts 276°
2026-05-07 11:26 22.15676 54.99813 29788 ft 465 kts 276°
2026-05-07 11:26 22.16402 54.92877 29795 ft 465 kts 276°
2026-05-07 11:27 22.17105 54.85938 29790 ft 465 kts 275°
2026-05-07 11:27 22.17801 54.79001 29783 ft 465 kts 275°
2026-05-07 11:28 22.18495 54.72111 29790 ft 465 kts 275°
2026-05-07 11:28 22.19191 54.65170 29784 ft 465 kts 275°
2026-05-07 11:29 22.19882 54.58235 29786 ft 465 kts 275°
2026-05-07 11:29 22.20565 54.51342 29777 ft 465 kts 275°
2026-05-07 11:30 22.21246 54.44398 29781 ft 465 kts 275°
2026-05-07 11:30 22.21919 54.37458 29780 ft 465 kts 275°
2026-05-07 11:31 22.22591 54.30515 29786 ft 465 kts 275°
2026-05-07 11:31 22.23264 54.23566 29783 ft 465 kts 275°
2026-05-07 11:32 22.24286 54.13212 29780 ft 465 kts 275°
2026-05-07 11:33 22.24951 54.06276 29783 ft 464 kts 275°
2026-05-07 11:33 22.25616 53.99347 29775 ft 464 kts 275°
2026-05-07 11:34 22.26279 53.92422 29774 ft 464 kts 275°
2026-05-07 11:34 22.26928 53.85539 29772 ft 464 kts 275°
2026-05-07 11:35 22.27584 53.78609 29771 ft 464 kts 275°
2026-05-07 11:35 22.28236 53.71681 29778 ft 464 kts 275°
2026-05-07 11:36 22.28883 53.64754 29778 ft 463 kts 274°
2026-05-07 11:36 22.29521 53.57872 29772 ft 463 kts 275°
2026-05-07 11:37 22.30166 53.50953 29770 ft 463 kts 274°
2026-05-07 11:37 22.30806 53.44044 29769 ft 463 kts 274°
2026-05-07 11:38 22.31443 53.37133 29762 ft 462 kts 274°
2026-05-07 11:38 22.32074 53.30221 29768 ft 462 kts 274°
2026-05-07 11:39 22.32694 53.23356 29756 ft 462 kts 274°
2026-05-07 11:39 22.33323 53.16447 29765 ft 462 kts 274°
2026-05-07 11:40 22.33945 53.09542 29763 ft 462 kts 274°
2026-05-07 11:40 22.34561 53.02675 29762 ft 462 kts 274°
2026-05-07 11:41 22.35179 52.95770 29758 ft 462 kts 274°
2026-05-07 11:41 22.35790 52.88859 29758 ft 462 kts 274°
2026-05-07 11:42 22.36400 52.81957 29757 ft 462 kts 274°
2026-05-07 11:42 22.37011 52.75046 29750 ft 462 kts 274°
2026-05-07 11:43 22.37614 52.68179 29754 ft 462 kts 274°
2026-05-07 11:43 22.38216 52.61275 29757 ft 462 kts 274°
2026-05-07 11:44 22.38813 52.54371 29758 ft 462 kts 274°
2026-05-07 11:44 22.39409 52.47455 29748 ft 462 kts 274°
2026-05-07 11:45 22.40002 52.40550 29751 ft 462 kts 274°
2026-05-07 11:45 22.40586 52.33685 29749 ft 462 kts 274°
2026-05-07 11:46 22.41177 52.26782 29747 ft 461 kts 274°
2026-05-07 11:46 22.41757 52.19883 29752 ft 461 kts 274°
2026-05-07 11:47 22.42337 52.12974 29747 ft 461 kts 274°
2026-05-07 11:47 22.42911 52.06124 29750 ft 461 kts 274°
2026-05-07 11:48 22.43486 51.99223 29750 ft 461 kts 273°
2026-05-07 11:48 22.44013 51.92328 29742 ft 461 kts 273°
2026-05-07 11:49 22.44559 51.85429 29741 ft 460 kts 274°
2026-05-07 11:49 22.45126 51.78585 29741 ft 460 kts 274°
2026-05-07 11:50 22.45707 51.71695 29751 ft 460 kts 274°
2026-05-07 11:50 22.46267 51.64798 29747 ft 460 kts 273°
2026-05-07 11:51 22.46847 51.57904 29753 ft 461 kts 274°
2026-05-07 11:51 22.47415 51.51010 29753 ft 461 kts 273°
2026-05-07 11:52 22.47961 51.44156 29755 ft 461 kts 273°
2026-05-07 11:52 22.48495 51.37249 29754 ft 461 kts 273°
2026-05-07 11:53 22.49028 51.30349 29752 ft 461 kts 273°
2026-05-07 11:53 22.49568 51.23442 29752 ft 461 kts 273°
2026-05-07 11:54 22.50114 51.16580 29754 ft 461 kts 273°
2026-05-07 11:54 22.50633 51.09677 29758 ft 461 kts 273°
2026-05-07 11:55 22.51165 51.02766 29755 ft 461 kts 273°
2026-05-07 11:55 22.51714 50.95855 29755 ft 461 kts 273°
2026-05-07 11:56 22.52250 50.88946 29757 ft 461 kts 273°
2026-05-07 11:56 22.52772 50.82072 29757 ft 462 kts 273°
2026-05-07 11:57 22.53293 50.75154 29757 ft 462 kts 272°
2026-05-07 11:57 22.53805 50.68236 29758 ft 462 kts 272°
2026-05-07 11:58 22.54327 50.61309 29755 ft 462 kts 272°
2026-05-07 11:58 22.54835 50.54386 29760 ft 462 kts 272°
2026-05-07 11:59 22.55334 50.47504 29866 ft 462 kts 272°
2026-05-07 11:59 22.55838 50.40574 29998 ft 462 kts 272°
2026-05-07 12:00 22.56342 50.33647 30135 ft 462 kts 272°
2026-05-07 12:00 22.56841 50.26725 30274 ft 461 kts 272°
2026-05-07 12:01 22.57340 50.19860 30413 ft 461 kts 272°
2026-05-07 12:01 22.57839 50.12953 30557 ft 460 kts 272°
2026-05-07 12:02 22.58326 50.06054 30698 ft 459 kts 272°
2026-05-07 12:02 22.58822 49.99180 30837 ft 458 kts 272°
2026-05-07 12:03 22.59301 49.92359 30972 ft 457 kts 272°
2026-05-07 12:03 22.59780 49.85509 31113 ft 456 kts 272°
2026-05-07 12:04 22.60245 49.78672 31263 ft 455 kts 272°
2026-05-07 12:04 22.60711 49.71856 31407 ft 454 kts 272°
2026-05-07 12:05 22.61178 49.65093 31546 ft 453 kts 272°
2026-05-07 12:05 22.61668 49.58312 31697 ft 451 kts 272°
2026-05-07 12:06 22.62133 49.51552 31779 ft 450 kts 272°
2026-05-07 12:06 22.62586 49.44801 31775 ft 450 kts 272°
2026-05-07 12:07 22.63036 49.38093 31765 ft 450 kts 272°
2026-05-07 12:07 22.63482 49.31352 31761 ft 449 kts 272°
2026-05-07 12:08 22.63929 49.24602 31770 ft 449 kts 272°
2026-05-07 12:08 22.64372 49.17852 31790 ft 450 kts 272°
2026-05-07 12:09 22.64811 49.11149 31893 ft 449 kts 271°
2026-05-07 12:09 22.65247 49.04405 32048 ft 449 kts 271°
2026-05-07 12:10 22.65681 48.97673 32180 ft 447 kts 271°
2026-05-07 12:10 22.66112 48.90957 32338 ft 447 kts 271°
2026-05-07 12:11 22.66533 48.84305 32492 ft 446 kts 271°
2026-05-07 12:11 22.66954 48.77615 32642 ft 445 kts 271°
2026-05-07 12:12 22.67374 48.70945 32797 ft 444 kts 271°
2026-05-07 12:12 22.67788 48.64279 32951 ft 443 kts 271°
2026-05-07 12:13 22.68195 48.57631 33103 ft 442 kts 271°
2026-05-07 12:13 22.68588 48.51038 33264 ft 441 kts 271°
2026-05-07 12:14 22.68976 48.44415 33413 ft 440 kts 271°
2026-05-07 12:14 22.69370 48.37803 33574 ft 440 kts 271°
2026-05-07 12:15 22.69770 48.31203 33737 ft 439 kts 271°
2026-05-07 12:15 22.70163 48.24672 33800 ft 437 kts 271°
2026-05-07 12:16 22.70557 48.18095 33787 ft 437 kts 271°
2026-05-07 12:16 22.70956 48.11532 33789 ft 437 kts 271°
2026-05-07 12:17 22.71351 48.04963 33786 ft 437 kts 270°
2026-05-07 12:17 22.71737 47.98435 33789 ft 437 kts 270°
2026-05-07 12:18 22.72118 47.91866 33790 ft 437 kts 270°
2026-05-07 12:18 22.72493 47.85301 33791 ft 438 kts 270°
2026-05-07 12:19 22.72865 47.78732 33797 ft 436 kts 270°
2026-05-07 12:19 22.73235 47.72210 33795 ft 436 kts 270°
2026-05-07 12:20 22.73602 47.65645 33798 ft 436 kts 270°
2026-05-07 12:20 22.73955 47.59088 33807 ft 436 kts 270°
2026-05-07 12:21 22.74305 47.52524 33808 ft 437 kts 270°
2026-05-07 12:21 22.74661 47.46021 33812 ft 435 kts 270°
2026-05-07 12:22 22.75017 47.39469 33819 ft 435 kts 270°
2026-05-07 12:22 22.75373 47.32928 33829 ft 436 kts 270°
2026-05-07 12:23 22.75727 47.26378 33831 ft 436 kts 270°
2026-05-07 12:23 22.76071 47.19878 33833 ft 434 kts 270°
2026-05-07 12:24 22.76528 47.13346 33837 ft 435 kts 271°
2026-05-07 12:24 22.77070 47.06807 33839 ft 436 kts 271°
2026-05-07 12:25 22.77595 47.00271 33841 ft 435 kts 271°
2026-05-07 12:25 22.78111 46.93735 33847 ft 434 kts 271°
2026-05-07 12:26 22.78621 46.87210 33852 ft 435 kts 271°
2026-05-07 12:26 22.79121 46.80718 33855 ft 435 kts 271°
2026-05-07 12:27 22.79610 46.74184 33864 ft 436 kts 271°
2026-05-07 12:27 22.80103 46.67657 33864 ft 434 kts 270°
2026-05-07 12:28 22.80593 46.61127 33872 ft 434 kts 271°
2026-05-07 12:28 22.81100 46.54648 33876 ft 435 kts 271°
2026-05-07 12:29 22.81617 46.48129 33885 ft 435 kts 271°
2026-05-07 12:29 22.82111 46.41613 33883 ft 434 kts 270°
2026-05-07 12:30 22.82591 46.35102 33888 ft 432 kts 270°
2026-05-07 12:30 22.83068 46.28643 33889 ft 433 kts 270°
2026-05-07 12:31 22.83552 46.22144 33884 ft 433 kts 270°
2026-05-07 12:31 22.84032 46.15646 33884 ft 432 kts 270°
2026-05-07 12:32 22.84500 46.09164 33884 ft 431 kts 270°
2026-05-07 12:32 22.84970 46.02689 33877 ft 432 kts 270°
2026-05-07 12:33 22.85670 45.93019 33870 ft 429 kts 270°
2026-05-07 12:33 22.86122 45.86568 33865 ft 430 kts 270°
2026-05-07 12:34 22.86584 45.80112 33869 ft 429 kts 270°
2026-05-07 12:34 22.87042 45.73668 33864 ft 428 kts 270°
2026-05-07 12:35 22.87487 45.67279 33866 ft 427 kts 270°
2026-05-07 12:35 22.87935 45.60851 33870 ft 427 kts 270°
2026-05-07 12:36 22.88376 45.54432 33869 ft 427 kts 270°
2026-05-07 12:36 22.88813 45.48019 33872 ft 427 kts 270°
2026-05-07 12:37 22.89246 45.41615 33875 ft 425 kts 270°
2026-05-07 12:37 22.89683 45.35252 33872 ft 426 kts 270°
2026-05-07 12:38 22.90119 45.28849 33874 ft 425 kts 270°
2026-05-07 12:38 22.90555 45.22455 33876 ft 425 kts 270°
2026-05-07 12:39 22.90984 45.16065 33877 ft 425 kts 269°
2026-05-07 12:39 22.91415 45.09670 33876 ft 424 kts 269°
2026-05-07 12:40 22.91836 45.03326 33883 ft 425 kts 269°
2026-05-07 12:40 22.92253 44.96935 33894 ft 425 kts 269°
2026-05-07 12:41 22.92673 44.90546 33892 ft 425 kts 269°
2026-05-07 12:41 22.93087 44.84164 33893 ft 424 kts 269°
2026-05-07 12:42 22.93502 44.77782 33895 ft 424 kts 269°
2026-05-07 12:42 22.93908 44.71450 33891 ft 424 kts 269°
2026-05-07 12:43 22.94776 44.65091 33893 ft 433 kts 281°
2026-05-07 12:43 22.96682 44.58876 33883 ft 434 kts 283°
2026-05-07 12:44 22.98617 44.52716 33888 ft 434 kts 283°
2026-05-07 12:44 23.00537 44.46512 33889 ft 434 kts 282°
2026-05-07 12:45 23.02453 44.40287 33885 ft 435 kts 282°
2026-05-07 12:45 23.04365 44.34063 33887 ft 435 kts 282°
2026-05-07 12:46 23.06272 44.27839 33877 ft 435 kts 282°
2026-05-07 12:46 23.08170 44.21649 33881 ft 436 kts 282°
2026-05-07 12:47 23.10080 44.15405 33891 ft 436 kts 282°
2026-05-07 12:47 23.11991 44.09159 33891 ft 435 kts 282°
2026-05-07 12:48 23.13895 44.02912 33890 ft 436 kts 282°
2026-05-07 12:48 23.15787 43.96686 33887 ft 437 kts 282°
2026-05-07 12:49 23.17695 43.90416 33896 ft 438 kts 281°
2026-05-07 12:49 23.19598 43.84153 33900 ft 436 kts 281°
2026-05-07 12:50 23.21499 43.77880 33913 ft 436 kts 281°
2026-05-07 12:50 23.23397 43.71613 33917 ft 436 kts 282°
2026-05-07 12:51 23.25280 43.65377 33918 ft 437 kts 282°
2026-05-07 12:51 23.27171 43.59109 33932 ft 436 kts 281°
2026-05-07 12:52 23.29051 43.52849 33939 ft 435 kts 281°
2026-05-07 12:52 23.30927 43.46601 33947 ft 434 kts 282°
2026-05-07 12:53 23.32793 43.40391 33959 ft 435 kts 281°
2026-05-07 12:53 23.34671 43.34142 33968 ft 434 kts 281°
2026-05-07 12:54 23.36533 43.27916 33965 ft 433 kts 281°
2026-05-07 12:54 23.38392 43.21695 33974 ft 432 kts 281°
2026-05-07 12:55 23.40247 43.15477 33984 ft 431 kts 281°
2026-05-07 12:55 23.42097 43.09262 34003 ft 432 kts 281°
2026-05-07 12:56 23.43924 43.03093 34009 ft 431 kts 281°
2026-05-07 12:56 23.45764 42.96885 34005 ft 431 kts 281°
2026-05-07 12:57 23.47599 42.90678 34016 ft 430 kts 281°
2026-05-07 12:57 23.49431 42.84473 34013 ft 430 kts 281°
2026-05-07 12:58 23.51247 42.78318 34021 ft 430 kts 281°
2026-05-07 12:58 23.53072 42.72118 34021 ft 429 kts 281°
2026-05-07 12:59 23.54899 42.65922 34024 ft 429 kts 281°
2026-05-07 12:59 23.56712 42.59743 34023 ft 429 kts 281°
2026-05-07 13:00 23.58534 42.53541 34026 ft 429 kts 280°
2026-05-07 13:00 23.60333 42.47400 34021 ft 428 kts 280°
2026-05-07 13:01 23.62140 42.41225 34025 ft 427 kts 280°
2026-05-07 13:01 23.63942 42.35058 34025 ft 426 kts 280°
2026-05-07 13:02 23.65736 42.28897 34023 ft 426 kts 280°
2026-05-07 13:02 23.67516 42.22781 34018 ft 426 kts 280°
2026-05-07 13:03 23.69300 42.16626 34015 ft 425 kts 280°
2026-05-07 13:03 23.71076 42.10475 34007 ft 425 kts 280°
2026-05-07 13:04 23.72851 42.04323 34003 ft 425 kts 280°
2026-05-07 13:04 23.74616 41.98209 34007 ft 426 kts 280°
2026-05-07 13:05 23.76396 41.92049 33997 ft 426 kts 280°
2026-05-07 13:05 23.78178 41.85882 33993 ft 426 kts 280°
2026-05-07 13:06 23.79956 41.79718 33992 ft 426 kts 280°
2026-05-07 13:06 23.81719 41.73584 33981 ft 426 kts 279°
2026-05-07 13:07 23.83488 41.67403 33982 ft 427 kts 280°
2026-05-07 13:07 23.85265 41.61227 33964 ft 427 kts 279°
2026-05-07 13:08 23.87036 41.55032 33965 ft 426 kts 279°
2026-05-07 13:08 23.88786 41.48850 33964 ft 426 kts 279°
2026-05-07 13:09 23.90531 41.42704 33957 ft 426 kts 279°
2026-05-07 13:09 23.92289 41.36519 33955 ft 427 kts 279°
2026-05-07 13:10 23.94046 41.30327 33945 ft 426 kts 279°
2026-05-07 13:10 23.95801 41.24135 33940 ft 426 kts 279°
2026-05-07 13:11 23.97551 41.17944 33931 ft 426 kts 279°
2026-05-07 13:11 23.99289 41.11791 33928 ft 426 kts 279°
2026-05-07 13:12 24.01030 41.05607 33920 ft 427 kts 279°
2026-05-07 13:12 24.02772 40.99412 33914 ft 426 kts 279°
2026-05-07 13:13 24.04510 40.93226 33911 ft 426 kts 279°
2026-05-07 13:13 24.06232 40.87075 33914 ft 425 kts 279°
2026-05-07 13:14 24.07966 40.80896 33899 ft 425 kts 279°
2026-05-07 13:14 24.09695 40.74718 33899 ft 424 kts 279°
2026-05-07 13:15 24.11418 40.68553 33896 ft 423 kts 279°
2026-05-07 13:15 24.13113 40.62428 33893 ft 423 kts 278°
2026-05-07 13:16 24.14819 40.56266 33890 ft 423 kts 278°
2026-05-07 13:16 24.16773 40.50158 33889 ft 433 kts 287°
2026-05-07 13:17 24.19564 40.44293 33889 ft 435 kts 289°
2026-05-07 13:17 24.22370 40.38474 33893 ft 435 kts 289°
2026-05-07 13:18 24.25198 40.32619 33891 ft 435 kts 289°
2026-05-07 13:18 24.27999 40.26753 33888 ft 435 kts 288°
2026-05-07 13:19 24.30793 40.20876 33893 ft 435 kts 288°
2026-05-07 13:19 24.33578 40.15040 33897 ft 435 kts 288°
2026-05-07 13:20 24.36384 40.09174 33899 ft 435 kts 289°
2026-05-07 13:20 24.39186 40.03298 33897 ft 435 kts 288°
2026-05-07 13:21 24.41988 39.97417 33890 ft 434 kts 288°
2026-05-07 13:21 24.44771 39.91533 33886 ft 434 kts 288°
2026-05-07 13:22 24.47532 39.85686 33884 ft 434 kts 288°
2026-05-07 13:22 24.50318 39.79802 33884 ft 434 kts 288°
2026-05-07 13:23 24.53116 39.73928 33875 ft 436 kts 291°
2026-05-07 13:23 24.54839 39.71146 33880 ft 448 kts 300°
2026-05-07 13:23 24.56934 39.68567 33864 ft 448 kts 299°
2026-05-07 13:24 24.58581 39.65737 33878 ft 435 kts 289°
2026-05-07 13:24 24.59963 39.62843 33879 ft 433 kts 288°
2026-05-07 13:24 24.62830 39.57016 33890 ft 435 kts 290°
2026-05-07 13:25 24.65822 39.51222 33870 ft 437 kts 291°
2026-05-07 13:25 24.68831 39.45433 33891 ft 435 kts 291°
2026-05-07 13:26 24.71831 39.39643 33877 ft 437 kts 291°
2026-05-07 13:26 24.74828 39.33857 33882 ft 435 kts 291°
2026-05-07 13:27 24.77799 39.28113 33875 ft 434 kts 291°
2026-05-07 13:27 24.80783 39.22344 33874 ft 434 kts 291°
2026-05-07 13:28 24.83763 39.16571 33869 ft 433 kts 291°
2026-05-07 13:28 24.86726 39.10806 33866 ft 430 kts 291°
2026-05-07 13:29 24.89668 39.05051 33858 ft 432 kts 290°
2026-05-07 13:29 24.92610 38.99318 33863 ft 433 kts 291°
2026-05-07 13:30 24.95575 38.93550 33855 ft 432 kts 291°
2026-05-07 13:30 24.98524 38.87779 33857 ft 432 kts 291°
2026-05-07 13:31 25.01494 38.82022 33849 ft 432 kts 291°
2026-05-07 13:31 25.04439 38.76304 33843 ft 432 kts 291°
2026-05-07 13:32 25.07392 38.70522 33843 ft 432 kts 291°
2026-05-07 13:32 25.10335 38.64760 33836 ft 430 kts 291°
2026-05-07 13:33 25.13276 38.58992 33827 ft 433 kts 290°
2026-05-07 13:33 25.16206 38.53234 33826 ft 430 kts 290°
2026-05-07 13:34 25.20578 38.44638 33822 ft 429 kts 290°
2026-05-07 13:35 25.23493 38.38886 33823 ft 429 kts 290°
2026-05-07 13:35 25.26407 38.33138 33820 ft 429 kts 290°
2026-05-07 13:36 25.28827 38.28360 33814 ft 429 kts 290°
2026-05-07 13:36 25.32208 38.21672 33827 ft 429 kts 290°
2026-05-07 13:37 25.35116 38.15921 33827 ft 429 kts 290°
2026-05-07 13:37 25.37516 38.11126 33829 ft 429 kts 290°
2026-05-07 13:38 25.40410 38.05359 33839 ft 429 kts 290°
2026-05-07 13:38 25.43782 37.98659 33847 ft 429 kts 290°
2026-05-07 13:39 25.46684 37.92880 33856 ft 430 kts 290°
2026-05-07 13:39 25.49098 37.88069 33858 ft 430 kts 291°
2026-05-07 13:40 25.52014 37.82284 33860 ft 431 kts 291°
2026-05-07 13:40 25.54924 37.76485 33872 ft 431 kts 290°
2026-05-07 13:41 25.57829 37.70679 33873 ft 431 kts 290°
2026-05-07 13:41 25.60713 37.64903 33884 ft 432 kts 290°
2026-05-07 13:42 25.63618 37.59082 33881 ft 433 kts 290°
2026-05-07 13:42 25.66531 37.53229 33896 ft 433 kts 290°
2026-05-07 13:43 25.69439 37.47397 33886 ft 433 kts 290°
2026-05-07 13:43 25.72339 37.41564 33875 ft 432 kts 290°
2026-05-07 13:44 25.75216 37.35758 33869 ft 433 kts 290°
2026-05-07 13:44 25.78116 37.29899 33876 ft 433 kts 290°
2026-05-07 13:45 25.81009 37.24042 33870 ft 433 kts 290°
2026-05-07 13:45 25.83903 37.18183 33868 ft 433 kts 290°
2026-05-07 13:46 25.86797 37.12332 33866 ft 432 kts 290°
2026-05-07 13:46 25.89667 37.06518 33868 ft 432 kts 290°
2026-05-07 13:47 25.92563 37.00662 33873 ft 432 kts 290°
2026-05-07 13:47 25.95446 36.94800 33885 ft 432 kts 290°
2026-05-07 13:48 25.98320 36.88942 33882 ft 432 kts 290°
2026-05-07 13:48 26.01176 36.83126 33887 ft 431 kts 290°
2026-05-07 13:49 26.04037 36.77270 33886 ft 431 kts 290°
2026-05-07 13:49 26.06894 36.71412 33883 ft 431 kts 289°
2026-05-07 13:50 26.09750 36.65551 33880 ft 431 kts 289°
2026-05-07 13:50 26.12607 36.59692 33883 ft 431 kts 289°
2026-05-07 13:51 26.15444 36.53869 33877 ft 431 kts 289°
2026-05-07 13:51 26.18576 36.48135 33873 ft 443 kts 300°
2026-05-07 13:52 26.22855 36.43072 33879 ft 451 kts 305°
2026-05-07 13:52 26.27244 36.38092 33881 ft 450 kts 305°
2026-05-07 13:53 26.31562 36.33118 33882 ft 449 kts 304°
2026-05-07 13:53 26.35888 36.28091 33887 ft 449 kts 305°
2026-05-07 13:54 26.40222 36.23067 33887 ft 449 kts 305°
2026-05-07 13:54 26.44570 36.18062 33888 ft 450 kts 306°
2026-05-07 13:55 26.48914 36.13040 33889 ft 449 kts 305°
2026-05-07 13:55 26.53212 36.08048 33890 ft 449 kts 306°
2026-05-07 13:56 26.57552 36.03024 33890 ft 449 kts 306°
2026-05-07 13:56 26.61882 35.97988 33889 ft 449 kts 306°
2026-05-07 13:57 26.66211 35.92955 33886 ft 449 kts 307°
2026-05-07 13:57 26.70533 35.87922 33885 ft 449 kts 307°
2026-05-07 13:58 26.74824 35.82920 33880 ft 448 kts 307°
2026-05-07 13:58 26.79134 35.77875 33881 ft 448 kts 307°
2026-05-07 13:59 26.83438 35.72831 33887 ft 448 kts 307°
2026-05-07 13:59 26.87747 35.67786 33886 ft 448 kts 308°
2026-05-07 14:00 26.92039 35.62777 33881 ft 448 kts 308°
2026-05-07 14:00 26.96338 35.57725 33878 ft 448 kts 308°
2026-05-07 14:01 27.00636 35.52669 33880 ft 448 kts 308°
2026-05-07 14:01 27.04939 35.47616 33879 ft 448 kts 309°
2026-05-07 14:02 27.09216 35.42603 33877 ft 448 kts 309°
2026-05-07 14:02 27.13516 35.37546 33879 ft 448 kts 309°
2026-05-07 14:03 27.17809 35.32486 33873 ft 448 kts 309°
2026-05-07 14:03 27.22101 35.27423 33876 ft 448 kts 310°
2026-05-07 14:04 27.26389 35.22344 33878 ft 448 kts 310°
2026-05-07 14:04 27.30649 35.17301 33869 ft 448 kts 310°
2026-05-07 14:05 27.34929 35.12218 33871 ft 447 kts 310°
2026-05-07 14:05 27.39217 35.07141 33864 ft 448 kts 311°
2026-05-07 14:06 27.43497 35.02049 33860 ft 447 kts 311°
2026-05-07 14:06 27.47745 34.96999 33865 ft 447 kts 311°
2026-05-07 14:07 27.52069 34.91961 33864 ft 448 kts 314°
2026-05-07 14:07 27.56614 34.87160 33871 ft 448 kts 315°
2026-05-07 14:08 27.61163 34.82371 33873 ft 447 kts 315°
2026-05-07 14:08 27.65671 34.77598 33868 ft 447 kts 315°
2026-05-07 14:09 27.70205 34.72795 33881 ft 447 kts 315°
2026-05-07 14:09 27.74740 34.67989 33886 ft 447 kts 315°
2026-05-07 14:10 27.79263 34.63183 33896 ft 446 kts 315°
2026-05-07 14:10 27.83773 34.58368 33906 ft 446 kts 315°
2026-05-07 14:11 27.88270 34.53605 33924 ft 446 kts 315°
2026-05-07 14:11 27.92787 34.48798 33929 ft 446 kts 315°
2026-05-07 14:12 27.97302 34.43983 33931 ft 446 kts 315°
2026-05-07 14:12 28.01541 34.38949 33930 ft 444 kts 308°
2026-05-07 14:13 28.05448 34.33530 33936 ft 444 kts 308°
2026-05-07 14:13 28.09358 34.28106 33932 ft 445 kts 308°
2026-05-07 14:14 28.13263 34.22679 33939 ft 444 kts 308°
2026-05-07 14:14 28.17174 34.17256 33938 ft 445 kts 308°
2026-05-07 14:15 28.21052 34.11862 33938 ft 444 kts 308°
2026-05-07 14:15 28.24965 34.06430 33947 ft 444 kts 308°
2026-05-07 14:16 28.28866 34.00997 33950 ft 444 kts 308°
2026-05-07 14:16 28.32770 33.95573 33945 ft 444 kts 308°
2026-05-07 14:17 28.36640 33.90161 33946 ft 444 kts 308°
2026-05-07 14:17 28.40534 33.84727 33935 ft 443 kts 308°
2026-05-07 14:18 28.44426 33.79290 33936 ft 443 kts 308°
2026-05-07 14:18 28.48303 33.73856 33931 ft 443 kts 308°
2026-05-07 14:19 28.52176 33.68418 33937 ft 441 kts 308°
2026-05-07 14:19 28.56034 33.62997 33938 ft 441 kts 308°
2026-05-07 14:20 28.59867 33.57619 33943 ft 440 kts 308°
2026-05-07 14:20 28.63715 33.52211 33942 ft 439 kts 308°
2026-05-07 14:21 28.67541 33.46805 33943 ft 438 kts 308°
2026-05-07 14:21 28.71370 33.41418 33945 ft 437 kts 308°
2026-05-07 14:22 28.75157 33.36052 33949 ft 438 kts 308°
2026-05-07 14:22 28.78976 33.30649 33948 ft 437 kts 308°
2026-05-07 14:23 28.82786 33.25257 33959 ft 436 kts 308°
2026-05-07 14:23 28.86593 33.19851 33952 ft 437 kts 308°
2026-05-07 14:24 28.90369 33.14477 33952 ft 437 kts 308°
2026-05-07 14:24 28.94171 33.09067 33953 ft 437 kts 308°
2026-05-07 14:25 28.97981 33.03657 33963 ft 437 kts 308°
2026-05-07 14:25 29.01764 32.98236 33971 ft 436 kts 308°
2026-05-07 14:26 29.05513 32.92857 33972 ft 435 kts 308°
2026-05-07 14:26 29.09288 32.87448 33980 ft 435 kts 308°
2026-05-07 14:27 29.13057 32.82048 33980 ft 434 kts 309°
2026-05-07 14:27 29.16839 32.76669 33991 ft 434 kts 309°
2026-05-07 14:28 29.20608 32.71277 33999 ft 434 kts 309°
2026-05-07 14:28 29.24341 32.65919 34005 ft 433 kts 309°
2026-05-07 14:29 29.28094 32.60516 34010 ft 433 kts 309°
2026-05-07 14:29 29.32241 32.55562 34010 ft 433 kts 326°
2026-05-07 14:29 29.34919 32.53986 34015 ft 434 kts 337°
2026-05-07 14:30 29.37768 32.52823 34032 ft 435 kts 340°
2026-05-07 14:30 29.43448 32.50594 34022 ft 435 kts 339°
2026-05-07 14:31 29.49164 32.48282 34029 ft 435 kts 339°
2026-05-07 14:31 29.54861 32.45958 34036 ft 435 kts 339°
2026-05-07 14:32 29.60564 32.43623 34035 ft 435 kts 339°
2026-05-07 14:32 29.66227 32.41305 34043 ft 435 kts 339°
2026-05-07 14:33 29.71925 32.38973 34040 ft 435 kts 339°
2026-05-07 14:33 29.77624 32.36634 34045 ft 434 kts 339°
2026-05-07 14:34 29.83314 32.34301 34049 ft 434 kts 339°
2026-05-07 14:34 29.88997 32.31956 34046 ft 434 kts 339°
2026-05-07 14:35 29.94639 32.29635 34054 ft 433 kts 339°
2026-05-07 14:35 30.00313 32.27293 34061 ft 433 kts 339°
2026-05-07 14:36 30.05985 32.24955 34067 ft 433 kts 339°
2026-05-07 14:36 30.11644 32.22616 34071 ft 432 kts 339°
2026-05-07 14:37 30.17303 32.20271 34083 ft 432 kts 339°
2026-05-07 14:37 30.25737 32.16782 34093 ft 430 kts 339°
2026-05-07 14:38 30.31368 32.14442 34095 ft 430 kts 339°
2026-05-07 14:38 30.37005 32.12097 34099 ft 430 kts 339°
2026-05-07 14:39 30.42630 32.09753 34102 ft 429 kts 339°
2026-05-07 14:39 30.48211 32.07432 34099 ft 429 kts 339°
2026-05-07 14:40 30.53827 32.05089 34095 ft 429 kts 339°
2026-05-07 14:40 30.59436 32.02749 34090 ft 428 kts 339°
2026-05-07 14:41 30.65042 32.00403 34088 ft 428 kts 339°
2026-05-07 14:41 30.70614 31.98074 34093 ft 428 kts 339°
2026-05-07 14:42 30.76202 31.95724 34094 ft 427 kts 339°
2026-05-07 14:42 30.81801 31.93380 34092 ft 427 kts 339°
2026-05-07 14:43 30.87221 31.91101 34091 ft 427 kts 339°
2026-05-07 14:43 30.92767 31.88766 34097 ft 426 kts 339°
2026-05-07 14:44 30.98350 31.86414 34098 ft 426 kts 339°
2026-05-07 14:44 31.03924 31.84068 34103 ft 426 kts 339°
2026-05-07 14:45 31.09494 31.81714 34103 ft 426 kts 339°
2026-05-07 14:45 31.15065 31.79355 34108 ft 425 kts 339°
2026-05-07 14:46 31.20622 31.77005 34113 ft 425 kts 339°
2026-05-07 14:46 31.26141 31.74669 34111 ft 424 kts 339°
2026-05-07 14:47 31.31689 31.72311 34112 ft 424 kts 339°
2026-05-07 14:47 31.37229 31.69957 34114 ft 423 kts 340°
2026-05-07 14:48 31.42543 31.67697 34111 ft 422 kts 340°
2026-05-07 14:48 31.48061 31.65345 34116 ft 422 kts 340°
2026-05-07 14:49 31.53576 31.62997 34119 ft 421 kts 340°
2026-05-07 14:49 31.59079 31.60648 34118 ft 421 kts 340°
2026-05-07 14:50 31.64576 31.58296 34116 ft 420 kts 340°
2026-05-07 14:50 31.70038 31.55957 34118 ft 420 kts 340°
2026-05-07 14:51 31.75518 31.53607 34120 ft 419 kts 340°
2026-05-07 14:51 31.80999 31.51255 34120 ft 419 kts 340°
2026-05-07 14:52 31.86465 31.48906 34118 ft 418 kts 340°
2026-05-07 14:52 31.91888 31.46573 34124 ft 417 kts 340°
2026-05-07 14:53 31.97167 31.44298 34121 ft 416 kts 340°
2026-05-07 14:53 32.02605 31.41952 34119 ft 416 kts 340°
2026-05-07 14:54 32.08038 31.39606 34119 ft 416 kts 340°
2026-05-07 14:54 32.13429 31.37274 34122 ft 415 kts 339°
2026-05-07 14:55 32.18846 31.34928 34123 ft 414 kts 339°
2026-05-07 14:55 32.24246 31.32578 34123 ft 414 kts 339°
2026-05-07 14:56 32.29491 31.29791 34131 ft 413 kts 336°
2026-05-07 14:56 32.34771 31.27248 34127 ft 412 kts 339°
2026-05-07 14:57 32.40138 31.24881 34128 ft 412 kts 339°
2026-05-07 14:57 32.45507 31.22540 34127 ft 411 kts 339°
2026-05-07 14:58 32.50878 31.20198 34129 ft 411 kts 339°
2026-05-07 14:58 32.56208 31.17869 34123 ft 410 kts 339°
2026-05-07 14:59 32.61565 31.15525 34131 ft 410 kts 339°
2026-05-07 14:59 32.66913 31.13181 34130 ft 410 kts 339°
2026-05-07 15:00 32.72259 31.10837 34133 ft 409 kts 339°
2026-05-07 15:00 32.77571 31.08504 34137 ft 409 kts 339°
2026-05-07 15:01 32.82902 31.06160 34143 ft 409 kts 339°
2026-05-07 15:01 32.88238 31.03811 34139 ft 408 kts 339°
2026-05-07 15:02 32.93731 31.02142 34141 ft 410 kts 349°
2026-05-07 15:02 32.99269 31.00593 34136 ft 408 kts 341°
2026-05-07 15:03 33.04582 30.98381 34142 ft 407 kts 339°
2026-05-07 15:03 33.09814 30.95809 34138 ft 408 kts 340°
2026-05-07 15:04 33.12589 30.95064 34136 ft 410 kts 351°
2026-05-07 15:04 33.15437 30.94793 34143 ft 412 kts 354°
2026-05-07 15:04 33.21169 30.94538 34145 ft 412 kts 355°
2026-05-07 15:05 33.26865 30.94330 34140 ft 412 kts 355°
2026-05-07 15:05 33.32600 30.94116 34146 ft 413 kts 355°
2026-05-07 15:06 33.38337 30.93899 34152 ft 413 kts 355°
2026-05-07 15:06 33.44076 30.93682 34138 ft 413 kts 355°
2026-05-07 15:07 33.49781 30.93466 34141 ft 413 kts 355°
2026-05-07 15:07 33.55528 30.93248 34150 ft 413 kts 355°
2026-05-07 15:08 33.61288 30.93041 34137 ft 414 kts 355°
2026-05-07 15:08 33.67042 30.92844 34155 ft 414 kts 355°
2026-05-07 15:09 33.72762 30.92629 34136 ft 414 kts 355°
2026-05-07 15:09 33.78524 30.92404 34141 ft 414 kts 355°
2026-05-07 15:10 33.84290 30.92194 34145 ft 415 kts 355°
2026-05-07 15:10 33.90067 30.91973 34150 ft 415 kts 354°
2026-05-07 15:11 33.95809 30.91755 34151 ft 415 kts 354°
2026-05-07 15:11 34.01581 30.91440 34150 ft 415 kts 354°
2026-05-07 15:12 34.07351 30.91109 34143 ft 416 kts 354°
2026-05-07 15:12 34.13129 30.90782 34146 ft 416 kts 354°
2026-05-07 15:13 34.18913 30.90463 34140 ft 416 kts 354°
2026-05-07 15:13 34.24658 30.90140 34140 ft 416 kts 354°
2026-05-07 15:14 34.30445 30.89857 34144 ft 416 kts 354°
2026-05-07 15:14 34.36236 30.89575 34140 ft 416 kts 354°
2026-05-07 15:15 34.42020 30.89299 34141 ft 416 kts 354°
2026-05-07 15:15 34.47771 30.89011 34144 ft 416 kts 354°
2026-05-07 15:16 34.53567 30.88727 34144 ft 417 kts 354°
2026-05-07 15:16 34.59356 30.88451 34145 ft 417 kts 354°
2026-05-07 15:17 34.65153 30.88203 34144 ft 417 kts 354°
2026-05-07 15:17 34.70925 30.88011 34137 ft 417 kts 355°
2026-05-07 15:18 34.76725 30.87818 34138 ft 417 kts 355°
2026-05-07 15:18 34.82538 30.87640 34141 ft 418 kts 355°
2026-05-07 15:19 34.88344 30.87448 34139 ft 418 kts 354°
2026-05-07 15:19 34.94115 30.87252 34138 ft 418 kts 354°
2026-05-07 15:20 34.99934 30.87063 34138 ft 418 kts 355°
2026-05-07 15:20 35.05751 30.86868 34137 ft 418 kts 354°
2026-05-07 15:21 35.11582 30.86878 34137 ft 419 kts 356°
2026-05-07 15:21 35.17412 30.86797 34137 ft 419 kts 355°
2026-05-07 15:22 35.23199 30.86619 34138 ft 419 kts 354°
2026-05-07 15:22 35.29027 30.86425 34138 ft 419 kts 354°
2026-05-07 15:23 35.34849 30.86233 34133 ft 419 kts 354°
2026-05-07 15:23 35.40673 30.86040 34131 ft 419 kts 354°
2026-05-07 15:24 35.46470 30.85847 34134 ft 419 kts 354°
2026-05-07 15:24 35.52297 30.85654 34135 ft 419 kts 354°
2026-05-07 15:25 35.58127 30.85460 34135 ft 419 kts 354°
2026-05-07 15:25 35.63952 30.85203 34130 ft 419 kts 353°
2026-05-07 15:26 35.69732 30.84861 34129 ft 419 kts 353°
2026-05-07 15:26 35.75559 30.84514 34130 ft 419 kts 353°
2026-05-07 15:27 35.81393 30.84165 34129 ft 419 kts 353°
2026-05-07 15:27 35.87220 30.83816 34125 ft 420 kts 353°
2026-05-07 15:28 35.93053 30.83466 34124 ft 420 kts 353°
2026-05-07 15:28 35.98847 30.83120 34123 ft 420 kts 353°
2026-05-07 15:29 36.04677 30.82791 34120 ft 420 kts 354°
2026-05-07 15:29 36.10520 30.82595 34122 ft 420 kts 354°
2026-05-07 15:30 36.16325 30.82403 34117 ft 420 kts 354°
2026-05-07 15:30 36.22162 30.82210 34112 ft 420 kts 354°
2026-05-07 15:31 36.28002 30.82017 34111 ft 419 kts 354°
2026-05-07 15:31 36.33825 30.81822 34110 ft 419 kts 354°
2026-05-07 15:32 36.39641 30.81537 34108 ft 417 kts 352°
2026-05-07 15:32 36.45399 30.81106 34105 ft 418 kts 354°
2026-05-07 15:33 36.51210 30.80870 34105 ft 418 kts 354°
2026-05-07 15:33 36.57036 30.80668 34103 ft 419 kts 354°
2026-05-07 15:34 36.62854 30.80459 34107 ft 419 kts 354°
2026-05-07 15:34 36.68686 30.80250 34109 ft 419 kts 354°
2026-05-07 15:35 36.74480 30.80049 34116 ft 419 kts 354°
2026-05-07 15:35 36.80314 30.79848 34112 ft 420 kts 354°
2026-05-07 15:36 36.86159 30.79654 34113 ft 420 kts 354°
2026-05-07 15:36 36.92004 30.79425 34109 ft 419 kts 352°
2026-05-07 15:37 36.97761 30.78754 34110 ft 418 kts 351°
2026-05-07 15:37 37.03556 30.78031 34112 ft 418 kts 351°
2026-05-07 15:38 37.09353 30.77321 34120 ft 419 kts 351°
2026-05-07 15:38 37.15143 30.76599 34126 ft 418 kts 351°
2026-05-07 15:39 37.20903 30.75879 34134 ft 419 kts 351°
2026-05-07 15:39 37.26703 30.75148 34148 ft 419 kts 351°
2026-05-07 15:40 37.32510 30.74421 34152 ft 419 kts 351°
2026-05-07 15:40 37.38318 30.73693 34161 ft 419 kts 351°
2026-05-07 15:41 37.44120 30.72934 34166 ft 419 kts 349°
2026-05-07 15:41 37.49855 30.72077 34169 ft 417 kts 349°
2026-05-07 15:42 37.55626 30.71228 34171 ft 417 kts 349°
2026-05-07 15:42 37.61393 30.70454 34169 ft 417 kts 351°
2026-05-07 15:43 37.67172 30.69743 34180 ft 417 kts 351°
2026-05-07 15:43 37.72908 30.69033 34204 ft 417 kts 351°
2026-05-07 15:44 37.78690 30.68318 34199 ft 417 kts 351°
2026-05-07 15:44 37.84458 30.67603 34202 ft 416 kts 351°
2026-05-07 15:45 37.90223 30.66880 34204 ft 416 kts 350°
2026-05-07 15:45 37.95936 30.66045 34195 ft 416 kts 349°
2026-05-07 15:46 38.04579 30.64862 34199 ft 417 kts 350°
2026-05-07 15:47 38.10345 30.64115 34200 ft 417 kts 350°
2026-05-07 15:47 38.16111 30.63354 34190 ft 417 kts 350°
2026-05-07 15:48 38.21851 30.62598 34181 ft 417 kts 350°
2026-05-07 15:48 38.27611 30.61839 34199 ft 416 kts 350°
2026-05-07 15:49 38.33380 30.61069 34197 ft 416 kts 350°
2026-05-07 15:49 38.39137 30.60290 34190 ft 416 kts 350°
2026-05-07 15:50 38.44869 30.59512 34192 ft 416 kts 350°
2026-05-07 15:50 38.50627 30.58734 34192 ft 416 kts 350°
2026-05-07 15:51 38.56384 30.57958 34184 ft 416 kts 350°
2026-05-07 15:51 38.62141 30.57174 34183 ft 416 kts 350°
2026-05-07 15:52 38.67894 30.56389 34189 ft 416 kts 350°
2026-05-07 15:52 38.73622 30.55612 34183 ft 416 kts 350°
2026-05-07 15:53 38.79356 30.54662 34184 ft 414 kts 344°
2026-05-07 15:53 38.84673 30.52017 34180 ft 410 kts 332°
2026-05-07 15:54 38.89770 30.48731 34180 ft 410 kts 332°
2026-05-07 15:54 38.94870 30.45454 34175 ft 410 kts 332°
2026-05-07 15:55 38.99947 30.42198 34168 ft 411 kts 332°
2026-05-07 15:55 39.05065 30.38914 34174 ft 411 kts 332°
2026-05-07 15:56 39.10182 30.35623 34170 ft 411 kts 332°
2026-05-07 15:56 39.15297 30.32331 34170 ft 411 kts 332°
2026-05-07 15:57 39.20387 30.29048 34168 ft 412 kts 332°
2026-05-07 15:57 39.25492 30.25690 34161 ft 412 kts 329°
2026-05-07 15:58 39.30531 30.22176 34158 ft 412 kts 330°
2026-05-07 15:58 39.35631 30.18809 34159 ft 412 kts 331°
2026-05-07 15:59 39.40727 30.15496 34157 ft 411 kts 331°
2026-05-07 15:59 39.45852 30.12375 34156 ft 407 kts 335°
2026-05-07 16:00 39.51154 30.09551 34160 ft 414 kts 335°
2026-05-07 16:00 39.56435 30.06640 33944 ft 408 kts 334°
2026-05-07 16:00 39.59059 30.05179 33658 ft 413 kts 334°
2026-05-07 16:01 39.61675 30.03718 33388 ft 415 kts 335°
2026-05-07 16:01 39.64364 30.02217 33114 ft 416 kts 335°
2026-05-07 16:01 39.66995 30.00747 32857 ft 418 kts 335°
2026-05-07 16:01 39.69667 29.99253 32599 ft 419 kts 335°
2026-05-07 16:02 39.72343 29.97755 32341 ft 420 kts 335°
2026-05-07 16:02 39.75026 29.96252 31910 ft 417 kts 335°
2026-05-07 16:02 39.77668 29.94771 31360 ft 412 kts 335°
2026-05-07 16:02 39.80290 29.93298 30800 ft 409 kts 335°
2026-05-07 16:03 39.82889 29.91836 30253 ft 405 kts 335°
2026-05-07 16:03 39.85439 29.90402 29602 ft 404 kts 335°
2026-05-07 16:03 39.88023 29.88948 28950 ft 406 kts 335°
2026-05-07 16:03 39.90688 29.87692 28293 ft 410 kts 343°
2026-05-07 16:04 39.93513 29.87025 27789 ft 422 kts 353°
2026-05-07 16:04 39.96513 29.86904 27466 ft 440 kts 357°
2026-05-07 16:04 39.99597 29.86908 27197 ft 444 kts 358°
2026-05-07 16:04 40.02697 29.86923 26935 ft 445 kts 358°
2026-05-07 16:05 40.05790 29.86929 26682 ft 446 kts 358°
2026-05-07 16:05 40.08903 29.86928 26441 ft 446 kts 358°
2026-05-07 16:05 40.11968 29.86925 26193 ft 447 kts 358°
2026-05-07 16:05 40.15077 29.86920 25950 ft 448 kts 358°
2026-05-07 16:06 40.18194 29.86913 25711 ft 448 kts 358°
2026-05-07 16:06 40.21314 29.86929 25467 ft 450 kts 359°
2026-05-07 16:06 40.24454 29.87000 25225 ft 450 kts 358°
2026-05-07 16:06 40.27586 29.86983 24994 ft 451 kts 357°
2026-05-07 16:07 40.30730 29.86925 24754 ft 452 kts 357°
2026-05-07 16:07 40.33870 29.86909 24547 ft 452 kts 358°
2026-05-07 16:07 40.37014 29.86984 24326 ft 451 kts
2026-05-07 16:07 40.40120 29.87611 24058 ft 448 kts 10°
2026-05-07 16:08 40.43077 29.88813 23179 ft 444 kts 15°
2026-05-07 16:08 40.45843 29.90530 22144 ft 450 kts 30°
2026-05-07 16:08 40.48354 29.92988 21634 ft 451 kts 34°
2026-05-07 16:08 40.50827 29.95505 21301 ft 448 kts 32°
2026-05-07 16:09 40.53521 29.97437 20996 ft 431 kts 17°
2026-05-07 16:09 40.56358 29.98241 20676 ft 408 kts
2026-05-07 16:09 40.59121 29.97980 20332 ft 391 kts 350°
2026-05-07 16:09 40.61795 29.97466 19732 ft 386 kts 352°
2026-05-07 16:10 40.64465 29.97152 19064 ft 384 kts 355°
2026-05-07 16:10 40.66228 29.97020 18613 ft 383 kts 354°
2026-05-07 16:10 40.69637 29.96025 17643 ft 378 kts 340°
2026-05-07 16:10 40.72088 29.94809 16910 ft 375 kts 334°
2026-05-07 16:11 40.74233 29.92920 16394 ft 368 kts 319°
2026-05-07 16:11 40.75881 29.90399 15908 ft 361 kts 304°
2026-05-07 16:11 40.76986 29.87440 15325 ft 359 kts 292°
2026-05-07 16:11 40.77847 29.84347 14720 ft 358 kts 291°
2026-05-07 16:12 40.78347 29.82281 14318 ft 357 kts 286°
2026-05-07 16:12 40.78885 29.79089 13718 ft 356 kts 283°
2026-05-07 16:12 40.79376 29.75897 13114 ft 353 kts 283°
2026-05-07 16:12 40.79869 29.72747 12557 ft 349 kts 283°
2026-05-07 16:13 40.80363 29.69621 11990 ft 346 kts 283°
2026-05-07 16:13 40.80857 29.66524 11457 ft 343 kts 283°
2026-05-07 16:13 40.81348 29.63455 10944 ft 340 kts 283°
2026-05-07 16:13 40.81824 29.60451 10687 ft 329 kts 283°
2026-05-07 16:14 40.82275 29.57588 10521 ft 316 kts 283°
2026-05-07 16:14 40.82713 29.54797 10374 ft 304 kts 283°
2026-05-07 16:14 40.83133 29.52123 10243 ft 292 kts 283°
2026-05-07 16:14 40.83542 29.49555 10111 ft 280 kts 283°
2026-05-07 16:15 40.83937 29.47058 9983 ft 278 kts 283°
2026-05-07 16:15 40.84331 29.44558 9780 ft 276 kts 283°
2026-05-07 16:15 40.84720 29.42084 9541 ft 276 kts 283°
2026-05-07 16:15 40.85110 29.39606 9380 ft 275 kts 283°
2026-05-07 16:16 40.85497 29.37141 9230 ft 274 kts 283°
2026-05-07 16:16 40.85884 29.34678 9108 ft 274 kts 283°
2026-05-07 16:16 40.86270 29.32219 8978 ft 273 kts 283°
2026-05-07 16:16 40.86656 29.29766 8848 ft 273 kts 283°
2026-05-07 16:17 40.87039 29.27351 8715 ft 272 kts 283°
2026-05-07 16:17 40.87427 29.24913 8502 ft 270 kts 283°
2026-05-07 16:17 40.87808 29.22497 8237 ft 268 kts 283°
2026-05-07 16:17 40.88185 29.20094 7951 ft 266 kts 283°
2026-05-07 16:18 40.88558 29.17704 7669 ft 265 kts 282°
2026-05-07 16:18 40.88928 29.15330 7387 ft 264 kts 282°
2026-05-07 16:18 40.89297 29.12955 7086 ft 263 kts 282°
2026-05-07 16:18 40.89662 29.10584 6781 ft 263 kts 282°
2026-05-07 16:19 40.90022 29.08247 6480 ft 263 kts 282°
2026-05-07 16:19 40.90388 29.05879 6164 ft 263 kts 282°
2026-05-07 16:19 40.90753 29.03515 5853 ft 262 kts 282°
2026-05-07 16:19 40.91110 29.01153 5551 ft 262 kts 280°
2026-05-07 16:20 40.91355 28.98771 5256 ft 261 kts 277°
2026-05-07 16:20 40.91559 28.96394 4964 ft 260 kts 277°
2026-05-07 16:20 40.91763 28.94018 4649 ft 260 kts 277°
2026-05-07 16:20 40.91967 28.91656 4334 ft 257 kts 277°
2026-05-07 16:21 40.92169 28.89320 4047 ft 254 kts 277°
2026-05-07 16:21 40.92367 28.87035 3975 ft 254 kts 277°
2026-05-07 16:21 40.92568 28.84720 3974 ft 254 kts 277°
2026-05-07 16:21 40.92771 28.82399 3989 ft 254 kts 277°
2026-05-07 16:22 40.93239 28.80159 3989 ft 254 kts 297°
2026-05-07 16:22 40.94389 28.78394 3997 ft 257 kts 322°
2026-05-07 16:22 40.95897 28.77248 3998 ft 243 kts 335°
2026-05-07 16:22 40.97461 28.76600 3988 ft 230 kts 345°
2026-05-07 16:23 40.99037 28.76285 3989 ft 230 kts 351°
2026-05-07 16:23 41.00633 28.76156 3996 ft 230 kts 356°
2026-05-07 16:23 41.02235 28.76124 3999 ft 230 kts 356°
2026-05-07 16:23 41.03814 28.76093 4003 ft 230 kts 356°
2026-05-07 16:24 41.05413 28.76063 4004 ft 230 kts 356°
2026-05-07 16:24 41.07012 28.76033 3960 ft 229 kts 356°
2026-05-07 16:24 41.08607 28.76002 3749 ft 229 kts 356°
2026-05-07 16:24 41.10197 28.75973 3471 ft 228 kts 356°
2026-05-07 16:25 41.11769 28.75943 3162 ft 224 kts 356°
2026-05-07 16:25 41.13313 28.75914 2844 ft 220 kts 356°
2026-05-07 16:25 41.14833 28.75885 2550 ft 217 kts 357°
2026-05-07 16:25 41.16314 28.75857 2322 ft 207 kts 358°
2026-05-07 16:26 41.17706 28.75831 2064 ft 196 kts 357°
2026-05-07 16:26 41.19022 28.75806 1808 ft 181 kts 358°
2026-05-07 16:26 41.20184 28.75784 1554 ft 155 kts 358°
2026-05-07 16:26 41.21188 28.75765 1309 ft 140 kts 358°
2026-05-07 16:27 41.22154 28.75746 1131 ft 139 kts 359°
2026-05-07 16:27 41.23025 28.75730 975 ft 137 kts 360°
2026-05-07 16:27 41.23976 28.75709 798 ft 136 kts
2026-05-07 16:27 41.24921 28.75686 634 ft 135 kts
2026-05-07 16:28 41.25861 28.75674 448 ft 135 kts
2026-05-07 16:28 41.26786 28.75654 324 ft 125 kts 360°
2026-05-07 16:28 41.27405 28.75649 322 ft 49 kts 359°
2026-05-07 16:28 41.27692 28.75647 316 ft 41 kts 359°
2026-05-07 16:29 41.27937 28.75633 310 ft 33 kts 350°
2026-05-07 16:29 41.28132 28.75520 291 ft 22 kts 330°
2026-05-07 16:29 41.28160 28.75385 274 ft 18 kts 221°
2026-05-07 16:29 41.28033 28.75356 279 ft 20 kts 179°
2026-05-07 16:30 41.27882 28.75359 288 ft 23 kts 179°
2026-05-07 16:30 41.27711 28.75360 298 ft 26 kts 180°
2026-05-07 16:30 41.27521 28.75362 304 ft 28 kts 180°
2026-05-07 16:30 41.27322 28.75366 308 ft 25 kts 179°
2026-05-07 16:31 41.27148 28.75369 311 ft 25 kts 179°
2026-05-07 16:31 41.27071 28.75370 313 ft 5 kts 180°
2026-05-07 16:31 41.27027 28.75370 312 ft 8 kts 180°
2026-05-07 16:31 41.26980 28.75319 312 ft 11 kts 255°
2026-05-07 16:32 41.26974 28.75211 312 ft 13 kts 268°
2026-05-07 16:32 41.26950 28.75135 317 ft 11 kts 180°
2026-05-07 16:32 41.26915 28.75139 318 ft 4 kts 175°
2026-05-07 16:32 41.26898 28.75140 318 ft 4 kts 174°
2026-05-07 16:33 41.26863 28.75145 318 ft 6 kts 176°
2026-05-07 16:33 41.26811 28.75147 318 ft 9 kts 178°
2026-05-07 16:33 41.26742 28.75148 319 ft 11 kts 179°
2026-05-07 16:33 41.26656 28.75146 319 ft 13 kts 186°
2026-05-07 16:34 41.26559 28.75110 319 ft 16 kts 197°
2026-05-07 16:34 41.26512 28.75067 319 ft 8 kts 266°
2026-05-07 16:34 41.26525 28.74993 319 ft 3 kts 287°
2026-05-07 16:34 41.26533 28.74958 319 ft 0 kts 288°